Dayton, OH

12:03 PM EST on February 25, 2017 (GMT -0500)
Wright-Patterson Air Force Base

Weather History for KFFO - October, 2013

Change the Weather History Date:

Tuesday, October 22, 2013

  Actual Average Record
Temperature  
Mean Temperature 40 °F -  
Max Temperature 51 °F 60 °F 81 °F (2015)
Min Temperature 30 °F 40 °F 26 °F (1997)
Degree Days  
Heating Degree Days 24    
Moisture  
Dew Point 31 °F    
Average Humidity 63    
Maximum Humidity 91    
Minimum Humidity 34    
Precipitation  
Precipitation 0.02 in - - ()
Sea Level Pressure  
Sea Level Pressure 29.97 in    
Wind  
Wind Speed 6 mph (WSW)    
Max Wind Speed 14 mph    
Max Gust Speed -    
Visibility 10 miles    
Events Rain    
Averages and records for this station are not official NWS values.
T = Trace of Precipitation, MM = Missing Value Source: NWS Daily Summary

Daily Weather History Graph

Daily Weather History Graph

Search for Another Location

Airport or City:

Trip Planner

Search our weather history database for the weather conditions in past years. The results will help you decide how hot, cold, wet, or windy it might be!

Date:

Astronomy

Oct. 22, 2013 Rise Set
Actual Time 7:54 AM EDT 6:46 PM EDT
Civil Twilight 7:26 AM EDT 7:13 PM EDT
Nautical Twilight 6:55 AM EDT 7:45 PM EDT
Astronomical Twilight 6:23 AM EDT 8:16 PM EDT
Moon 9:26 PM EDT (10/22) 11:21 AM EDT (10/22)
Length of Visible Light 11h 47m
Length of Day
10h 52m
Waning Gibbous, 87% of the Moon is Illuminated
Oct 22
Waning Gibbous
Oct 26
Last Quarter
Nov 3
New
Nov 10
First Quarter
Nov 17
Full

Hourly Weather History & Observations

Time (EDT) Temp. Windchill Dew Point Humidity Pressure Visibility Wind Dir Wind Speed Gust Speed Precip Events Conditions
12:12 AM 46.4 °F 43.5 °F 41.0 °F 81% 29.95 in 10.0 mi WNW 5.8 mph - N/A   Overcast
12:22 AM 46.4 °F 43.5 °F 41.0 °F 81% 29.95 in 10.0 mi WNW 5.8 mph - N/A   Overcast
12:58 AM 45.5 °F 41.3 °F 38.3 °F 76% 29.97 in 10.0 mi WNW 8.1 mph - 0.01 in   Overcast
1:58 AM 43.3 °F 36.5 °F 33.1 °F 67% 29.99 in 10.0 mi WNW 13.8 mph - N/A   Overcast
2:58 AM 41.2 °F 35.0 °F 29.7 °F 64% 30.00 in 10.0 mi WNW 10.4 mph - N/A   Partly Cloudy
3:58 AM 37.9 °F 33.5 °F 29.3 °F 71% 30.01 in 10.0 mi West 5.8 mph - N/A   Clear
4:58 AM 36.5 °F 32.7 °F 28.0 °F 71% 30.02 in 10.0 mi WSW 4.6 mph - N/A   Clear
5:58 AM 34.5 °F 27.9 °F 28.0 °F 77% 30.02 in 10.0 mi West 8.1 mph - N/A   Clear
6:58 AM 33.4 °F 28.1 °F 27.1 °F 78% 30.03 in 10.0 mi WSW 5.8 mph - N/A   Clear
7:58 AM 30.6 °F 27.1 °F 27.0 °F 86% 30.04 in 10.0 mi South 3.5 mph - N/A   Clear
8:58 AM 35.1 °F 31.0 °F 27.9 °F 75% 30.05 in 10.0 mi West 4.6 mph - N/A   Clear
9:58 AM 40.1 °F 36.1 °F 27.9 °F 62% 30.06 in 10.0 mi WSW 5.8 mph - N/A   Clear
10:58 AM 43.5 °F 38.9 °F 27.7 °F 54% 30.05 in 10.0 mi West 8.1 mph - N/A   Clear
11:58 AM 45.9 °F 40.8 °F 27.9 °F 49% 30.04 in 10.0 mi West 10.4 mph - N/A   Clear
12:58 PM 47.3 °F - 26.1 °F 44% 30.01 in 10.0 mi Variable 3.5 mph - N/A   Partly Cloudy
1:58 PM 49.6 °F - 27.0 °F 41% 29.99 in 10.0 mi WSW 4.6 mph - N/A   Clear
2:58 PM 50.7 °F - 25.9 °F 38% 29.96 in 10.0 mi Variable 5.8 mph - N/A   Clear
3:58 PM 50.9 °F - 25.0 °F 36% 29.93 in 10.0 mi SW 5.8 mph - N/A   Clear
4:58 PM 51.4 °F - 23.7 °F 34% 29.92 in 10.0 mi SW 3.5 mph - N/A   Clear
5:58 PM 48.9 °F - 31.1 °F 50% 29.94 in 10.0 mi South 4.6 mph - N/A   Partly Cloudy
6:58 PM 47.8 °F - 27.9 °F 46% 29.92 in 10.0 mi South 5.8 mph - N/A   Scattered Clouds
7:58 PM 47.5 °F - 29.1 °F 49% 29.91 in 10.0 mi SSW 4.6 mph - N/A   Partly Cloudy
8:58 PM 46.8 °F - 30.9 °F 54% 29.92 in 10.0 mi South 6.9 mph - N/A   Partly Cloudy
9:06 PM 46.4 °F 44.3 °F 32.0 °F 57% 29.90 in 10.0 mi Variable 4.6 mph - N/A   Light Drizzle
9:36 PM 44.6 °F 39.7 °F 33.8 °F 66% 29.90 in 10.0 mi South 9.2 mph - N/A   Light Drizzle
9:46 PM 44.6 °F 42.2 °F 35.6 °F 71% 29.90 in 10.0 mi South 4.6 mph - N/A   Light Drizzle
9:56 PM 44.6 °F - 35.6 °F 71% 29.91 in 10.0 mi SSW 2.3 mph - N/A   Light Drizzle
9:58 PM 43.7 °F - 34.9 °F 71% 29.94 in 10.0 mi SW 1.2 mph - 0.00 in Rain Light Rain
10:58 PM 42.8 °F - 35.6 °F 76% 29.92 in 10.0 mi West 2.3 mph - 0.01 in Rain Light Rain
11:09 PM 42.8 °F - 37.4 °F 81% 29.90 in 10.0 mi WNW 2.3 mph - N/A Rain Light Rain
11:58 PM 41.5 °F 37.1 °F 39.0 °F 91% 29.89 in 10.0 mi North 6.9 mph - 0.00 in   Light Drizzle